When you browse on this site, cookies collect data to enhance your experience and personalize the content and advertising you see.
Visit our Privacy Policy to learn more. By continuing to use the site, you agree to this use of cookies and data.
  • In France
  • List of Countries
  • For 7 days
  • Water Temperature
  • Satellite Maps
  • Weather Map
  • Weather Widgets
  • user-avatar
    Login

    Hourly Weather Haskovo

    Today, 27 May, Monday

    Time Temperature Precipitation Wind Pressure Humidity
    00:00 +18°C° 0 mm 1 mps 742 mmHg 78%
    01:00 +16°C° 0 mm 1 mps 742 mmHg 79%
    02:00 +16°C° 0 mm 1 mps 742 mmHg 80%
    03:00 +15°C° 0 mm 1 mps 742 mmHg 81%
    04:00 +15°C° 0 mm 1 mps 741 mmHg 82%
    05:00 +14°C° 0 mm 1 mps 741 mmHg 84%
    06:00 +18°C° 0 mm 1 mps 742 mmHg 77%
    07:00 +20°C° 0 mm 1 mps 742 mmHg 70%
    08:00 +22°C° 0 mm 1 mps 742 mmHg 63%
    09:00 +23°C° 0 mm 2 mps 742 mmHg 58%
    10:00 +25°C° 0 mm 3 mps 742 mmHg 53%
    11:00 +27°C° 0 mm 4 mps 742 mmHg 48%
    12:00 +28°C° 0 mm 4 mps 741 mmHg 46%
    13:00 +28°C° 0 mm 4 mps 741 mmHg 44%
    14:00 +29°C° 0 mm 5 mps 741 mmHg 42%
    15:00 +29°C° 0 mm 5 mps 741 mmHg 44%
    16:00 +28°C° 0 mm 5 mps 740 mmHg 46%
    17:00 +28°C° 0 mm 5 mps 740 mmHg 47%
    18:00 +26°C° 0 mm 4 mps 740 mmHg 55%
    19:00 +23°C° 0 mm 4 mps 740 mmHg 63%
    20:00 +21°C° 0 mm 4 mps 740 mmHg 70%
    21:00 +20°C° 0 mm 3 mps 740 mmHg 72%
    22:00 +19°C° 0 mm 3 mps 740 mmHg 74%
    23:00 +18°C° 0 mm 3 mps 740 mmHg 77%

    Tomorrow, 28 May, Tuesday

    Time Temperature Precipitation Wind Pressure Humidity
    00:00 +17°C° 0 mm 3 mps 740 mmHg 78%
    01:00 +16°C° 0 mm 2 mps 739 mmHg 80%
    02:00 +16°C° 0 mm 2 mps 739 mmHg 82%
    03:00 +15°C° 0 mm 2 mps 739 mmHg 82%
    04:00 +15°C° 0 mm 1 mps 739 mmHg 82%
    05:00 +14°C° 0 mm 1 mps 738 mmHg 82%
    06:00 +17°C° 0 mm 2 mps 738 mmHg 76%
    07:00 +19°C° 0 mm 2 mps 738 mmHg 69%
    08:00 +21°C° 0 mm 2 mps 738 mmHg 63%
    09:00 +24°C° 0 mm 3 mps 738 mmHg 56%
    10:00 +27°C° 0 mm 4 mps 738 mmHg 50%
    11:00 +29°C° 0 mm 5 mps 738 mmHg 43%
    12:00 +29°C° 0 mm 6 mps 738 mmHg 41%
    13:00 +30°C° 0 mm 7 mps 737 mmHg 39%
    14:00 +31°C° 0 mm 8 mps 737 mmHg 38%
    15:00 +29°C° 0 mm 8 mps 737 mmHg 40%
    16:00 +28°C° 0 mm 7 mps 736 mmHg 43%
    17:00 +27°C° 0 mm 7 mps 736 mmHg 45%
    18:00 +24°C° 0 mm 7 mps 736 mmHg 52%
    19:00 +22°C° 0 mm 6 mps 736 mmHg 59%
    20:00 +20°C° 0 mm 6 mps 736 mmHg 65%
    21:00 +19°C° 0 mm 5 mps 736 mmHg 68%
    22:00 +19°C° 0 mm 4 mps 737 mmHg 71%
    23:00 +18°C° 0 mm 4 mps 737 mmHg 74%

    Day after tomorrow, 29 May, Wednesday

    Time Temperature Precipitation Wind Pressure Humidity
    00:00 +17°C° 0 mm 3 mps 737 mmHg 75%
    01:00 +17°C° 0 mm 2 mps 737 mmHg 77%
    02:00 +16°C° 0 mm 2 mps 737 mmHg 78%
    03:00 +16°C° 0 mm 1 mps 737 mmHg 80%
    04:00 +15°C° 0 mm 1 mps 737 mmHg 82%
    05:00 +15°C° 0 mm 1 mps 737 mmHg 83%
    06:00 +18°C° 0 mm 1 mps 737 mmHg 76%
    07:00 +20°C° 0 mm 1 mps 738 mmHg 69%
    08:00 +22°C° 0 mm 1 mps 738 mmHg 62%
    09:00 +24°C° 0 mm 1 mps 738 mmHg 57%
    10:00 +26°C° 0 mm 2 mps 738 mmHg 52%
    11:00 +27°C° 0 mm 2 mps 738 mmHg 48%
    12:00 +28°C° 0 mm 3 mps 738 mmHg 46%
    13:00 +29°C° 0 mm 3 mps 738 mmHg 45%
    14:00 +30°C° 0 mm 4 mps 738 mmHg 43%
    15:00 +29°C° 0 mm 4 mps 738 mmHg 45%
    16:00 +29°C° 0 mm 4 mps 738 mmHg 48%
    17:00 +29°C° 0 mm 4 mps 738 mmHg 50%
    18:00 +26°C° 0 mm 4 mps 738 mmHg 59%
    19:00 +24°C° 0 mm 3 mps 738 mmHg 67%
    20:00 +21°C° 0 mm 3 mps 738 mmHg 76%
    21:00 +20°C° 0 mm 2 mps 738 mmHg 79%
    22:00 +19°C° 0 mm 2 mps 738 mmHg 82%
    23:00 +19°C° 0 mm 1 mps 739 mmHg 85%

    30 May, Thursday

    Time Temperature Precipitation Wind Pressure Humidity
    00:00 +19°C° 0 mm 1 mps 739 mmHg 86%
    01:00 +19°C° 0 mm 1 mps 739 mmHg 86%
    02:00 +18°C° 0 mm 1 mps 739 mmHg 86%
    03:00 +18°C° 0 mm 1 mps 739 mmHg 87%
    04:00 +18°C° 0 mm 1 mps 739 mmHg 87%
    05:00 +18°C° 0 mm 1 mps 739 mmHg 87%
    06:00 +20°C° 0 mm 1 mps 739 mmHg 79%
    07:00 +22°C° 0 mm 1 mps 739 mmHg 72%
    08:00 +24°C° 0 mm 2 mps 740 mmHg 64%
    09:00 +25°C° 0.3 mm 2 mps 740 mmHg 62%
    10:00 +26°C° 0.3 mm 2 mps 740 mmHg 59%
    11:00 +27°C° 0.3 mm 2 mps 740 mmHg 56%
    12:00 +27°C° 2.5 mm 2 mps 739 mmHg 57%
    13:00 +28°C° 2.5 mm 1 mps 739 mmHg 57%
    14:00 +28°C° 2.5 mm 1 mps 739 mmHg 57%
    15:00 +27°C° 1 mm 1 mps 739 mmHg 57%
    16:00 +27°C° 1 mm 2 mps 738 mmHg 58%
    17:00 +27°C° 1 mm 2 mps 738 mmHg 58%
    18:00 +25°C° 0.5 mm 2 mps 738 mmHg 66%
    19:00 +23°C° 0.5 mm 2 mps 738 mmHg 74%
    20:00 +21°C° 0.5 mm 1 mps 738 mmHg 82%
    21:00 +20°C° 0.1 mm 1 mps 738 mmHg 84%
    22:00 +20°C° 0.1 mm 1 mps 739 mmHg 86%
    23:00 +19°C° 0.1 mm 1 mps 739 mmHg 88%

    31 May, Friday

    Time Temperature Precipitation Wind Pressure Humidity
    00:00 +18°C° 0 mm 1 mps 738 mmHg 89%
    01:00 +17°C° 0 mm 2 mps 738 mmHg 91%
    02:00 +16°C° 0 mm 2 mps 738 mmHg 92%
    03:00 +16°C° 0 mm 2 mps 738 mmHg 92%
    04:00 +16°C° 0 mm 2 mps 738 mmHg 92%
    05:00 +16°C° 0 mm 1 mps 738 mmHg 91%
    06:00 +17°C° 0.1 mm 2 mps 738 mmHg 88%
    07:00 +18°C° 0.1 mm 2 mps 738 mmHg 86%
    08:00 +19°C° 0.1 mm 2 mps 738 mmHg 83%
    09:00 +20°C° 0.1 mm 2 mps 738 mmHg 76%
    10:00 +21°C° 0.1 mm 2 mps 738 mmHg 70%
    11:00 +24°C° 0.1 mm 2 mps 738 mmHg 63%
    12:00 +24°C° 1.6 mm 2 mps 738 mmHg 64%
    13:00 +24°C° 1.6 mm 2 mps 738 mmHg 64%
    14:00 +24°C° 1.6 mm 1 mps 737 mmHg 64%
    15:00 +24°C° 3.1 mm 2 mps 737 mmHg 68%
    16:00 +23°C° 3.1 mm 2 mps 737 mmHg 71%
    17:00 +21°C° 3.1 mm 2 mps 737 mmHg 75%
    18:00 +20°C° 0.3 mm 2 mps 737 mmHg 78%
    19:00 +19°C° 0.3 mm 2 mps 737 mmHg 82%
    20:00 +18°C° 0.3 mm 2 mps 737 mmHg 86%
    21:00 +17°C° 0 mm 2 mps 737 mmHg 87%
    22:00 +16°C° 0 mm 2 mps 737 mmHg 89%
    23:00 +16°C° 0 mm 2 mps 737 mmHg 90%

    1 June, Saturday

    Time Temperature Precipitation Wind Pressure Humidity
    00:00 +16°C° 0.3 mm 2 mps 737 mmHg 90%
    01:00 +15°C° 0.3 mm 2 mps 737 mmHg 91%
    02:00 +15°C° 0.3 mm 2 mps 737 mmHg 91%
    03:00 +15°C° 0 mm 2 mps 737 mmHg 91%
    04:00 +15°C° 0 mm 2 mps 737 mmHg 91%
    05:00 +13°C° 0 mm 3 mps 737 mmHg 91%
    06:00 +14°C° 0 mm 3 mps 737 mmHg 86%
    07:00 +17°C° 0 mm 4 mps 737 mmHg 81%
    08:00 +18°C° 0 mm 4 mps 738 mmHg 76%
    09:00 +18°C° 0.1 mm 4 mps 738 mmHg 75%
    10:00 +19°C° 0.1 mm 4 mps 738 mmHg 73%
    11:00 +19°C° 0.1 mm 4 mps 738 mmHg 71%
    12:00 +20°C° 0 mm 4 mps 738 mmHg 66%
    13:00 +21°C° 0 mm 5 mps 738 mmHg 60%
    14:00 +23°C° 0 mm 5 mps 738 mmHg 55%
    15:00 +22°C° 0 mm 5 mps 738 mmHg 57%
    16:00 +21°C° 0 mm 5 mps 738 mmHg 59%
    17:00 +21°C° 0 mm 5 mps 739 mmHg 61%
    18:00 +19°C° 0 mm 4 mps 739 mmHg 66%
    19:00 +18°C° 0 mm 3 mps 739 mmHg 71%
    20:00 +16°C° 0 mm 2 mps 739 mmHg 75%
    21:00 +15°C° 0 mm 2 mps 740 mmHg 77%
    22:00 +15°C° 0 mm 1 mps 740 mmHg 79%
    23:00 +14°C° 0 mm 1 mps 741 mmHg 81%
    Show more